When you browse on this site, cookies collect data to enhance your experience and personalize the content and advertising you see.
Visit our Privacy Policy to learn more. By continuing to use the site, you agree to this use of cookies and data.
  • In Latvia
  • List of Countries
  • For 7 days
  • Water Temperature
  • Satellite Maps
  • Weather Map
  • Weather Widgets
  • user-avatar
    Login

    Hourly Weather Emona

    Today, 22 April, Monday

    Time Temperature Precipitation Wind Pressure Humidity
    00:00 +8°C° 0 mm 1 mps 766 mmHg 76%
    01:00 +7°C° 0 mm 1 mps 766 mmHg 77%
    02:00 +7°C° 0 mm 1 mps 765 mmHg 77%
    03:00 +7°C° 0 mm 1 mps 765 mmHg 78%
    04:00 +7°C° 0 mm 1 mps 765 mmHg 79%
    05:00 +5°C° 0 mm 0 mps 765 mmHg 80%
    06:00 +8°C° 0 mm 1 mps 765 mmHg 75%
    07:00 +10°C° 0 mm 1 mps 765 mmHg 69%
    08:00 +12°C° 0 mm 2 mps 765 mmHg 63%
    09:00 +12°C° 0 mm 3 mps 765 mmHg 60%
    10:00 +13°C° 0 mm 3 mps 766 mmHg 57%
    11:00 +14°C° 0 mm 4 mps 766 mmHg 54%
    12:00 +15°C° 0 mm 4 mps 766 mmHg 54%
    13:00 +15°C° 0 mm 5 mps 766 mmHg 53%
    14:00 +15°C° 0 mm 5 mps 766 mmHg 53%
    15:00 +14°C° 0 mm 6 mps 766 mmHg 54%
    16:00 +13°C° 0 mm 6 mps 766 mmHg 55%
    17:00 +13°C° 0 mm 6 mps 766 mmHg 56%
    18:00 +10°C° 0 mm 5 mps 766 mmHg 58%
    19:00 +9°C° 0 mm 5 mps 766 mmHg 61%
    20:00 +7°C° 0 mm 4 mps 766 mmHg 63%
    21:00 +7°C° 0 mm 4 mps 767 mmHg 65%
    22:00 +7°C° 0 mm 3 mps 767 mmHg 66%
    23:00 +7°C° 0 mm 3 mps 767 mmHg 67%

    Tomorrow, 23 April, Tuesday

    Time Temperature Precipitation Wind Pressure Humidity
    00:00 +7°C° 0 mm 3 mps 767 mmHg 70%
    01:00 +7°C° 0 mm 2 mps 767 mmHg 72%
    02:00 +6°C° 0 mm 2 mps 767 mmHg 75%
    03:00 +6°C° 0 mm 2 mps 767 mmHg 76%
    04:00 +7°C° 0 mm 2 mps 767 mmHg 77%
    05:00 +7°C° 0 mm 2 mps 767 mmHg 79%
    06:00 +8°C° 0 mm 3 mps 768 mmHg 76%
    07:00 +9°C° 0 mm 3 mps 768 mmHg 74%
    08:00 +10°C° 0 mm 4 mps 768 mmHg 72%
    09:00 +11°C° 0 mm 4 mps 768 mmHg 68%
    10:00 +12°C° 0 mm 4 mps 768 mmHg 64%
    11:00 +13°C° 0 mm 4 mps 769 mmHg 61%
    12:00 +13°C° 0 mm 5 mps 768 mmHg 60%
    13:00 +14°C° 0 mm 5 mps 768 mmHg 60%
    14:00 +14°C° 0 mm 5 mps 768 mmHg 59%
    15:00 +13°C° 0 mm 5 mps 768 mmHg 61%
    16:00 +13°C° 0 mm 5 mps 768 mmHg 63%
    17:00 +12°C° 0 mm 4 mps 767 mmHg 65%
    18:00 +11°C° 0 mm 4 mps 767 mmHg 68%
    19:00 +11°C° 0 mm 4 mps 768 mmHg 72%
    20:00 +10°C° 0 mm 4 mps 768 mmHg 75%
    21:00 +10°C° 0 mm 4 mps 768 mmHg 77%
    22:00 +10°C° 0 mm 4 mps 768 mmHg 79%
    23:00 +8°C° 0 mm 4 mps 768 mmHg 81%

    Day after tomorrow, 24 April, Wednesday

    Time Temperature Precipitation Wind Pressure Humidity
    00:00 +9°C° 0.3 mm 3 mps 768 mmHg 84%
    01:00 +9°C° 0.3 mm 3 mps 768 mmHg 88%
    02:00 +9°C° 0.3 mm 3 mps 768 mmHg 92%
    03:00 +9°C° 0.8 mm 3 mps 768 mmHg 93%
    04:00 +9°C° 0.8 mm 3 mps 768 mmHg 94%
    05:00 +9°C° 0.8 mm 3 mps 768 mmHg 95%
    06:00 +10°C° 0 mm 3 mps 768 mmHg 93%
    07:00 +11°C° 0 mm 3 mps 768 mmHg 90%
    08:00 +12°C° 0 mm 3 mps 768 mmHg 87%
    09:00 +13°C° 0 mm 3 mps 768 mmHg 83%
    10:00 +14°C° 0 mm 3 mps 768 mmHg 78%
    11:00 +16°C° 0 mm 3 mps 768 mmHg 74%
    12:00 +17°C° 0 mm 4 mps 768 mmHg 73%
    13:00 +17°C° 0 mm 4 mps 768 mmHg 73%
    14:00 +16°C° 0 mm 5 mps 768 mmHg 72%
    15:00 +15°C° 0 mm 5 mps 768 mmHg 74%
    16:00 +15°C° 0 mm 5 mps 767 mmHg 76%
    17:00 +14°C° 0 mm 5 mps 767 mmHg 78%
    18:00 +12°C° 0 mm 5 mps 768 mmHg 83%
    19:00 +11°C° 0 mm 4 mps 768 mmHg 88%
    20:00 +9°C° 0 mm 3 mps 768 mmHg 94%
    21:00 +9°C° 0 mm 3 mps 768 mmHg 94%
    22:00 +9°C° 0 mm 3 mps 768 mmHg 95%
    23:00 +8°C° 0 mm 2 mps 769 mmHg 95%

    25 April, Thursday

    Time Temperature Precipitation Wind Pressure Humidity
    00:00 +8°C° 0 mm 2 mps 769 mmHg 95%
    01:00 +8°C° 0 mm 2 mps 768 mmHg 95%
    02:00 +8°C° 0 mm 2 mps 768 mmHg 95%
    03:00 +8°C° 0 mm 2 mps 768 mmHg 95%
    04:00 +9°C° 0 mm 1 mps 768 mmHg 95%
    05:00 +9°C° 0 mm 1 mps 768 mmHg 95%
    06:00 +9°C° 0 mm 2 mps 769 mmHg 90%
    07:00 +12°C° 0 mm 2 mps 769 mmHg 85%
    08:00 +13°C° 0 mm 2 mps 769 mmHg 80%
    09:00 +14°C° 0 mm 3 mps 769 mmHg 75%
    10:00 +16°C° 0 mm 3 mps 769 mmHg 71%
    11:00 +17°C° 0 mm 3 mps 769 mmHg 66%
    12:00 +18°C° 0 mm 4 mps 768 mmHg 66%
    13:00 +18°C° 0 mm 4 mps 768 mmHg 65%
    14:00 +18°C° 0 mm 4 mps 768 mmHg 64%
    15:00 +18°C° 0 mm 4 mps 767 mmHg 67%
    16:00 +17°C° 0 mm 4 mps 767 mmHg 69%
    17:00 +15°C° 0 mm 4 mps 767 mmHg 71%
    18:00 +13°C° 0 mm 4 mps 767 mmHg 79%
    19:00 +11°C° 0 mm 3 mps 767 mmHg 87%
    20:00 +10°C° 0 mm 3 mps 767 mmHg 95%
    21:00 +9°C° 0 mm 2 mps 768 mmHg 95%
    22:00 +9°C° 0 mm 2 mps 768 mmHg 95%
    23:00 +10°C° 0 mm 1 mps 768 mmHg 96%

    26 April, Friday

    Time Temperature Precipitation Wind Pressure Humidity
    00:00 +9°C° 0 mm 1 mps 767 mmHg 95%
    01:00 +9°C° 0 mm 1 mps 767 mmHg 95%
    02:00 +9°C° 0 mm 1 mps 767 mmHg 95%
    03:00 +9°C° 0 mm 1 mps 766 mmHg 95%
    04:00 +9°C° 0 mm 1 mps 766 mmHg 95%
    05:00 +9°C° 0 mm 1 mps 766 mmHg 94%
    06:00 +10°C° 0 mm 2 mps 766 mmHg 88%
    07:00 +12°C° 0 mm 2 mps 767 mmHg 82%
    08:00 +14°C° 0 mm 2 mps 767 mmHg 76%
    09:00 +14°C° 0 mm 3 mps 767 mmHg 70%
    10:00 +16°C° 0 mm 3 mps 767 mmHg 64%
    11:00 +18°C° 0 mm 4 mps 766 mmHg 58%
    12:00 +18°C° 0 mm 4 mps 766 mmHg 58%
    13:00 +18°C° 0 mm 4 mps 766 mmHg 57%
    14:00 +17°C° 0 mm 5 mps 765 mmHg 57%
    15:00 +18°C° 0 mm 4 mps 765 mmHg 59%
    16:00 +17°C° 0 mm 4 mps 765 mmHg 62%
    17:00 +15°C° 0 mm 4 mps 765 mmHg 64%
    18:00 +13°C° 0 mm 3 mps 765 mmHg 72%
    19:00 +12°C° 0 mm 3 mps 765 mmHg 79%
    20:00 +10°C° 0 mm 2 mps 765 mmHg 87%
    21:00 +9°C° 0 mm 2 mps 765 mmHg 88%
    22:00 +10°C° 0 mm 1 mps 765 mmHg 89%
    23:00 +10°C° 0 mm 1 mps 765 mmHg 90%

    27 April, Saturday

    Time Temperature Precipitation Wind Pressure Humidity
    00:00 +10°C° 0 mm 1 mps 765 mmHg 90%
    01:00 +9°C° 0 mm 1 mps 764 mmHg 90%
    02:00 +8°C° 0 mm 0 mps 764 mmHg 90%
    03:00 +8°C° 0 mm 0 mps 764 mmHg 90%
    04:00 +8°C° 0 mm 0 mps 764 mmHg 90%
    05:00 +8°C° 0 mm 0 mps 764 mmHg 91%
    06:00 +11°C° 0 mm 1 mps 764 mmHg 85%
    07:00 +13°C° 0 mm 1 mps 764 mmHg 80%
    08:00 +14°C° 0 mm 2 mps 764 mmHg 75%
    09:00 +16°C° 0 mm 2 mps 763 mmHg 70%
    10:00 +17°C° 0 mm 3 mps 763 mmHg 64%
    11:00 +19°C° 0 mm 3 mps 763 mmHg 59%
    12:00 +19°C° 0 mm 4 mps 762 mmHg 57%
    13:00 +19°C° 0 mm 4 mps 762 mmHg 55%
    14:00 +19°C° 0 mm 4 mps 762 mmHg 54%
    15:00 +18°C° 0 mm 4 mps 761 mmHg 56%
    16:00 +17°C° 0 mm 4 mps 761 mmHg 58%
    17:00 +15°C° 0 mm 4 mps 761 mmHg 59%
    18:00 +14°C° 0 mm 4 mps 761 mmHg 67%
    19:00 +12°C° 0 mm 3 mps 761 mmHg 74%
    20:00 +10°C° 0 mm 3 mps 761 mmHg 82%
    21:00 +10°C° 0 mm 2 mps 761 mmHg 83%
    22:00 +9°C° 0 mm 2 mps 761 mmHg 84%
    23:00 +9°C° 0 mm 2 mps 761 mmHg 86%
    Show more